Location: UBC Liquid-Mirror Observatory
(49.2876°N, 122.5728°W)
Time: 12:14:55
(UTC-08:00)

Amateur Radio Satellites - All Passes

Search period start: 19 December 2014 11:44
Search period end: 20 December 2014 11:44
Location: UBC Liquid-Mirror Observatory, 49.2876°N, 122.5728°W

Satellite Date Start Highest point End Downlink Frequencies (MHz)
Time Altitude Azimuth
Oscar 11 19 Dec 11:46:34 11:48:42 14° 303° (WNW) 11:50:49 145.826/435.025
HUMSAT D 19 Dec 11:46:58 11:50:51 34° 293° (WNW) 11:54:46 437.325/437.525
UKube-1 19 Dec 11:53:50 11:56:20 15° 303° (WNW) 11:58:49 .
CUBEBUG 2 19 Dec 11:56:14 11:59:09 17° 301° (WNW) 12:02:07 437.445
CINEMA 3 19 Dec 12:05:33 12:06:36 11° 306° (NW) 12:07:40 145.822/145.860
ESTCUBE 1 19 Dec 12:06:21 12:10:46 56° 289° (WNW) 12:15:09 437.505/2401.250
CUSAT 1 19 Dec 12:08:11 12:08:38 10° 314° (NW) 12:09:07 437.405
AO-7 19 Dec 12:08:48 12:12:28 14° 30° (NNE) 12:16:08 29.400- 29.500
VELOX 1 19 Dec 12:09:21 12:12:58 25° 297° (WNW) 12:16:35 145.980
ZACube-1 19 Dec 12:12:59 12:15:35 15° 302° (WNW) 12:18:12 437.345
YUBILEINY 19 Dec 12:32:56 12:40:40 38° 276° (W) 12:48:23 435.215
RS-15 19 Dec 12:35:50 12:46:40 75° 123° (ESE) 12:57:38 29.354- 29.394
SPROUT 19 Dec 12:39:06 12:43:25 84° 103° (ESE) 12:47:44 437.525
TISAT 1 19 Dec 12:40:11 12:44:25 89° 289° (WNW) 12:48:39 437.305
Oscar 19 19 Dec 12:45:27 12:50:36 87° 255° (WSW) 12:55:49 437.125/150
PCSat 19 Dec 12:46:35 12:47:58 11° 101° (E) 12:49:21 145.827
Gurwin Techsat 1B 19 Dec 12:46:36 12:51:05 29° 62° (ENE) 12:55:36 435.225
SWISSCUBE 19 Dec 12:50:33 12:54:20 23° 92° (E) 12:58:06 437.505
ITUPSAT 1 19 Dec 12:50:35 12:54:12 21° 92° (E) 12:57:49 437.325
BEESAT 3 19 Dec 12:51:44 12:53:55 14° 111° (ESE) 12:56:06 437.485
AISAT 19 Dec 12:53:28 12:54:57 12° 306° (NW) 12:56:27 437.250
ITAMSAT 1 19 Dec 12:58:26 13:03:27 53° 68° (ENE) 13:08:30 435.822/435.867
CUBEBUG 1 19 Dec 13:03:00 13:06:00 19° 300° (WNW) 13:09:00 437.445
BEESAT 19 Dec 13:15:27 13:19:51 35° 97° (E) 13:24:12 436.000
AUBIESAT-1 19 Dec 13:17:39 13:19:23 12° 91° (E) 13:21:03 437.475
BEESAT 2 19 Dec 13:28:47 13:32:19 28° 117° (ESE) 13:35:54 435.950
HORYU 2 19 Dec 13:36:08 13:39:57 28° 64° (ENE) 13:43:49 437.375
M-CUBED/EXP-1 PRIME 19 Dec 13:40:57 13:44:31 23° 97° (E) 13:47:50 437.505
JAS-2 19 Dec 13:42:28 13:44:31 11° 44° (NE) 13:46:31 435.910
AO-7 19 Dec 13:55:29 14:03:00 40° 54° (NE) 14:10:33 29.400- 29.500
SPROUT 19 Dec 14:16:46 14:18:55 14° 303° (WNW) 14:21:04 437.525
TISAT 1 19 Dec 14:17:50 14:19:37 13° 304° (WNW) 14:21:23 437.305
PCSat 19 Dec 14:24:59 14:30:20 66° 120° (ESE) 14:35:44 145.827
Gurwin Techsat 1B 19 Dec 14:25:41 14:30:50 50° 261° (W) 14:36:01 435.225
AIST 2 19 Dec 14:27:10 14:31:16 49° 122° (ESE) 14:35:26 435.215
BEESAT 3 19 Dec 14:27:23 14:31:31 82° 310° (NW) 14:35:43 437.485
ITUPSAT 1 19 Dec 14:27:46 14:32:27 55° 290° (WNW) 14:37:05 437.325
SWISSCUBE 19 Dec 14:27:51 14:32:29 50° 291° (WNW) 14:37:04 437.505
Oscar 19 19 Dec 14:28:13 14:30:44 14° 274° (W) 14:33:15 437.125/150
GONETS M04 19 Dec 14:34:33 14:40:16 18° 50° (NE) 14:45:56
STARS 19 Dec 14:38:25 14:42:31 35° 97° (E) 14:46:35 437.465
ITAMSAT 1 19 Dec 14:39:01 14:43:15 25° 267° (W) 14:47:30 435.822/435.867
KKS-1 19 Dec 14:39:17 14:43:40 51° 100° (E) 14:48:02 437.445
RS-15 19 Dec 14:49:24 14:59:52 49° 331° (NNW) 15:10:35 29.354- 29.394
AUBIESAT-1 19 Dec 14:50:33 14:55:05 85° 291° (WNW) 14:59:13 437.475
ISS 19 Dec 14:51:01 14:54:08 40° 149° (SSE) 14:57:15 145.825
BEESAT 19 Dec 14:53:23 14:57:40 33° 295° (WNW) 15:01:54 436.000
BEESAT 2 19 Dec 15:06:26 15:10:25 44° 317° (NW) 15:14:28 435.950
HORYU 2 19 Dec 15:12:21 15:16:30 38° 262° (W) 15:20:43 437.375
M-CUBED/EXP-1 PRIME 19 Dec 15:15:25 15:19:48 46° 297° (WNW) 15:23:49 437.505
JAS-2 19 Dec 15:21:04 15:28:04 44° 64° (ENE) 15:34:27 435.910
Cubesat XI-IV 19 Dec 15:46:50 15:49:57 16° 53° (NE) 15:53:05 437.490
AO-7 19 Dec 15:47:14 15:55:27 63° 256° (WSW) 16:03:46 29.400- 29.500
AIST 2 19 Dec 16:06:17 16:10:06 30° 323° (NW) 16:13:57 435.215
BEESAT 3 19 Dec 16:07:20 16:10:21 19° 331° (NNW) 16:13:23 437.485
PCSat 19 Dec 16:09:25 16:14:11 30° 322° (NW) 16:18:58 145.827
STARS 19 Dec 16:15:04 16:18:55 30° 295° (WNW) 16:22:46 437.465
KKS-1 19 Dec 16:16:36 16:20:00 22° 299° (WNW) 16:23:25 437.445
CUTE-I 19 Dec 16:18:52 16:23:12 26° 60° (ENE) 16:27:34 437.470
AUBIESAT-1 19 Dec 16:26:52 16:29:17 14° 312° (NW) 16:31:37 437.475
ISS 19 Dec 16:27:22 16:30:39 65° 349° (NNW) 16:33:56 145.825
GONETS M04 19 Dec 16:30:21 16:39:08 67° 76° (ENE) 16:47:48
AIST 1 19 Dec 16:30:41 16:34:57 53° 95° (E) 16:39:13
BEESAT 2 19 Dec 16:47:29 16:49:43 14° 339° (NNW) 16:51:58 435.950
RS-15 19 Dec 17:05:31 17:15:26 36° 4° (N) 17:25:39 29.354- 29.394
JAS-2 19 Dec 17:05:44 17:13:03 48° 262° (W) 17:19:45 435.910
MOZHAYETS 4 19 Dec 17:16:52 17:21:32 77° 103° (ESE) 17:26:09
Cubesat XI-IV 19 Dec 17:23:56 17:29:16 82° 73° (ENE) 17:34:38 437.490
MaSat-1 19 Dec 17:40:38 17:42:49 33° 55° (NE) 17:45:05 437.345
AO-7 19 Dec 17:46:09 17:50:01 14° 278° (W) 17:53:55 29.400- 29.500
AIST 2 19 Dec 17:48:20 17:50:03 12° 346° (NNW) 17:51:47 435.215
PCSat 19 Dec 17:56:50 17:59:25 13° 347° (NNW) 18:02:00 145.827
CUTE-I 19 Dec 17:57:45 18:02:58 56° 259° (W) 18:08:13 437.470
ISS 19 Dec 18:04:12 18:07:28 59° 8° (N) 18:10:43 145.825
AIST 1 19 Dec 18:09:52 18:12:58 19° 294° (WNW) 18:16:04
DANDE 19 Dec 18:15:14 18:18:44 14° 52° (NE) 18:22:29 436.750
STRAND 1 19 Dec 18:21:57 18:26:17 27° 94° (E) 18:30:34 437.568
PRISM 19 Dec 18:24:55 18:29:04 60° 102° (ESE) 18:33:09 437.425
GONETS M04 19 Dec 18:27:54 18:35:21 33° 278° (W) 18:42:44
CANX-2 19 Dec 18:31:04 18:32:34 12° 56° (NE) 18:34:05 2200.000
HO-68 19 Dec 18:31:37 18:37:36 30° 54° (NE) 18:43:34 435.675
CUBESAT XI-V 19 Dec 18:36:58 18:41:22 42° 98° (E) 18:45:43 437.345
GOMX 1 19 Dec 18:54:52 18:56:57 14° 58° (ENE) 18:59:03 467.674
COMPASS 1 19 Dec 18:55:06 18:57:12 14° 58° (ENE) 18:59:18 437.405
MOZHAYETS 4 19 Dec 18:55:19 18:58:12 17° 302° (WNW) 19:01:03
SEEDS 19 Dec 18:58:31 19:01:14 17° 60° (ENE) 19:03:58 437.485
CUTE 1.7 + AOD 2 19 Dec 19:00:11 19:03:15 20° 61° (ENE) 19:06:20 437.475
Cubesat XI-IV 19 Dec 19:06:45 19:10:02 16° 272° (W) 19:13:21 437.490
CUSAT 1 19 Dec 19:10:04 19:16:28 32° 65° (ENE) 19:23:42 437.405
RS-15 19 Dec 19:19:42 19:30:39 57° 36° (NE) 19:42:01 29.354- 29.394
DOVE 4 19 Dec 19:23:51 19:26:48 19° 61° (ENE) 19:29:48 437.250
BEESAT 3 19 Dec 19:28:12 19:30:11 13° 19° (NNE) 19:32:10 437.485
AIST 2 19 Dec 19:29:20 19:30:35 11° 10° (N) 19:31:51 435.215
Oscar 11 19 Dec 19:33:33 19:36:13 16° 59° (ENE) 19:38:54 145.826/435.025
ISS 19 Dec 19:40:51 19:44:04 51° 208° (SSW) 19:47:15 145.825
UKube-1 19 Dec 19:41:32 19:44:09 16° 58° (ENE) 19:46:47 .
PCSat 19 Dec 19:42:42 19:45:18 13° 14° (NNE) 19:47:55 145.827
CUBEBUG 2 19 Dec 19:47:04 19:49:16 14° 57° (ENE) 19:51:30 437.445
AAUSAT CUBESAT 2 19 Dec 19:53:46 19:57:42 40° 69° (ENE) 20:01:41 437.432
CINEMA 3 19 Dec 19:55:55 19:59:17 24° 63° (ENE) 20:02:45 145.822/145.860
DANDE 19 Dec 19:56:41 20:03:41 51° 72° (ENE) 20:11:56 436.750
BRITE-PL 19 Dec 19:58:57 20:03:05 72° 74° (ENE) 20:07:15 437.365/2234.400
STRAND 1 19 Dec 20:00:48 20:05:41 47° 293° (WNW) 20:10:32 437.568
PRISM 19 Dec 20:01:27 20:04:11 17° 300° (WNW) 20:06:54 437.425
ZACube-1 19 Dec 20:01:46 20:04:05 15° 58° (ENE) 20:06:25 437.345
CANX-2 19 Dec 20:03:31 20:07:47 81° 75° (ENE) 20:12:07 2200.000
BEESAT 2 19 Dec 20:06:51 20:09:44 18° 27° (NNE) 20:12:36 435.950
CUBESAT XI-V 19 Dec 20:14:48 20:18:38 27° 296° (WNW) 20:22:28 437.345
HO-68 19 Dec 20:17:34 20:24:45 74° 255° (WSW) 20:31:58 435.675
UWE-3 19 Dec 20:25:38 20:29:10 26° 64° (ENE) 20:32:46 435.000/436.395/437.385
FUNcube-1 19 Dec 20:27:30 20:30:52 24° 63° (ENE) 20:34:18 145.935
COMPASS 1 19 Dec 20:28:05 20:32:19 84° 256° (WSW) 20:36:36 437.405
GOMX 1 19 Dec 20:30:24 20:34:32 76° 257° (WSW) 20:38:45 467.674
SEEDS 19 Dec 20:32:22 20:36:36 65° 259° (WSW) 20:40:53 437.485
CUTE 1.7 + AOD 2 19 Dec 20:34:38 20:38:49 54° 260° (W) 20:43:04 437.475
AISAT 19 Dec 20:41:37 20:45:02 22° 62° (ENE) 20:48:27 437.250
DX 1 19 Dec 20:43:27 20:47:42 57° 71° (ENE) 20:51:58 434.975-435.025
SO-50 19 Dec 20:46:17 20:49:45 22° 113° (ESE) 20:53:18 436.795
DELFI C3 19 Dec 20:50:21 20:54:26 67° 73° (ENE) 20:58:33 145.870
CUSAT 1 19 Dec 20:52:43 21:00:04 74° 262° (W) 21:08:31 437.405
CUBEBUG 1 19 Dec 20:52:57 20:54:43 12° 56° (NE) 20:56:28 437.445
50 SAT 19 Dec 20:53:32 20:56:36 21° 63° (ENE) 20:59:42 437.505
DOVE 4 19 Dec 21:00:14 21:04:16 50° 261° (W) 21:08:24 437.250
BEESAT 3 19 Dec 21:05:33 21:09:30 38° 41° (NE) 21:13:24 437.485
AIST 2 19 Dec 21:07:07 21:10:42 25° 34° (NNE) 21:14:15 435.215
Oscar 11 19 Dec 21:07:34 21:11:53 71° 258° (WSW) 21:16:16 145.826/435.025
HUMSAT D 19 Dec 21:07:42 21:11:29 35° 67° (ENE) 21:15:19 437.325/437.525
UKube-1 19 Dec 21:15:29 21:19:48 73° 257° (WSW) 21:24:10 .
ISS 19 Dec 21:19:16 21:20:02 11° 226° (SW) 21:20:47 145.825
CUBEBUG 2 19 Dec 21:21:11 21:25:22 80° 257° (WSW) 21:29:42 437.445
PCSat 19 Dec 21:25:43 21:30:32 31° 39° (NE) 21:35:18 145.827
AAUSAT CUBESAT 2 19 Dec 21:30:08 21:33:32 23° 267° (W) 21:36:58 437.432
RS-15 19 Dec 21:32:24 21:43:18 61° 242° (WSW) 21:54:42 29.354- 29.394
CINEMA 3 19 Dec 21:32:25 21:36:20 39° 263° (W) 21:40:22 145.822/145.860
ESTCUBE 1 19 Dec 21:34:00 21:37:56 30° 65° (ENE) 21:41:53 437.505/2401.250
VELOX 1 19 Dec 21:34:14 21:38:36 64° 72° (ENE) 21:43:00 145.980
ZACube-1 19 Dec 21:35:41 21:39:53 77° 257° (WSW) 21:44:11 437.345
DANDE 19 Dec 21:40:18 21:47:10 45° 268° (W) 21:55:07 436.750
BRITE-PL 19 Dec 21:40:29 21:42:12 12° 272° (W) 21:43:56 437.365/2234.400
CANX-2 19 Dec 21:42:36 21:44:19 12° 273° (W) 21:46:03 2200.000
BEESAT 2 19 Dec 21:44:31 21:48:44 70° 49° (NE) 21:52:54 435.950
UNISAT 6 19 Dec 21:51:13 21:54:30 19° 90° (E) 21:57:48 437.425
YUBILEINY 19 Dec 21:52:10 21:55:14 12° 68° (ENE) 21:58:18 435.215
UWE-3 19 Dec 22:01:43 22:05:35 36° 264° (W) 22:09:35 435.000/436.395/437.385
DUCHIFAT 1 19 Dec 22:02:55 22:05:10 14° 89° (E) 22:07:25 145.980
FUNcube-1 19 Dec 22:03:04 22:07:01 41° 262° (W) 22:11:06 145.935
TISAT 1 19 Dec 22:03:07 22:05:39 16° 59° (ENE) 22:08:11 437.305
SPROUT 19 Dec 22:03:40 22:06:07 15° 58° (ENE) 22:08:34 437.525
BUGSAT 1 19 Dec 22:06:53 22:08:17 12° 88° (E) 22:09:41 437.445
HO-68 19 Dec 22:09:41 22:13:43 16° 275° (W) 22:17:45 435.675
QB50P2 19 Dec 22:15:11 22:18:15 19° 91° (E) 22:21:18 145.880/145.840
AISAT 19 Dec 22:17:06 22:21:23 49° 260° (W) 22:25:42 437.250
DX 1 19 Dec 22:21:23 22:24:19 18° 269° (W) 22:27:15 434.975-435.025
ANTELSAT 19 Dec 22:22:21 22:26:41 35° 96° (E) 22:31:00 437.575/2403.000
POLYITAN 1 19 Dec 22:23:26 22:26:52 23° 93° (E) 22:30:16 437.675
SO-50 19 Dec 22:25:19 22:29:52 64° 314° (NW) 22:34:36 436.795
CUBEBUG 1 19 Dec 22:26:01 22:30:24 83° 74° (ENE) 22:34:46 437.445
NANOSAT C BR1 19 Dec 22:26:25 22:29:53 24° 94° (E) 22:33:20 145.865
50 SAT 19 Dec 22:27:45 22:31:35 43° 262° (W) 22:35:29 437.505
DELFI C3 19 Dec 22:28:01 22:30:10 14° 272° (W) 22:32:20 145.870
CUSAT 1 19 Dec 22:37:27 22:42:17 19° 279° (W) 22:47:29 437.405
QB50P1 19 Dec 22:40:25 22:44:16 32° 96° (E) 22:48:06 145.935-145.965
BEESAT 3 19 Dec 22:43:53 22:47:39 33° 241° (WSW) 22:51:22 437.485
HUMSAT D 19 Dec 22:43:53 22:47:22 26° 266° (W) 22:50:55 437.325/437.525
AIST 2 19 Dec 22:45:26 22:49:45 69° 234° (SW) 22:53:58 435.215
BEESAT 19 Dec 22:52:18 22:53:47 11° 52° (NE) 22:55:16 436.000
TIGRISAT 19 Dec 22:58:14 23:02:56 73° 103° (ESE) 23:07:39 435.000
M-CUBED/EXP-1 PRIME 19 Dec 23:01:35 23:03:45 13° 47° (NE) 23:05:55 437.505
POPSAT HIP 1 19 Dec 23:08:46 23:13:01 62° 102° (ESE) 23:17:15 437.405
PCSat 19 Dec 23:08:58 23:14:21 64° 240° (WSW) 23:19:42 145.827
ESTCUBE 1 19 Dec 23:10:32 23:14:44 36° 263° (W) 23:18:57 437.505/2401.250
VELOX 1 19 Dec 23:12:54 23:15:38 16° 270° (W) 23:18:23 145.980
BEESAT 2 19 Dec 23:23:47 23:26:31 17° 248° (WSW) 23:29:13 435.950
UNISAT 6 19 Dec 23:27:03 23:31:41 62° 288° (WNW) 23:36:21 437.425
TISAT 1 19 Dec 23:36:49 23:41:00 69° 258° (WSW) 23:45:13 437.305
DUCHIFAT 1 19 Dec 23:37:16 23:41:31 69° 287° (WNW) 23:45:44 145.980
SPROUT 19 Dec 23:37:24 23:41:41 75° 257° (WSW) 23:45:59 437.525
BUGSAT 1 19 Dec 23:40:16 23:44:20 77° 286° (WNW) 23:48:23 437.445
YUBILEINY 19 Dec 23:41:32 23:49:59 57° 91° (E) 23:58:26 435.215
O/OREOS (USA 219) 19 Dec 23:45:58 23:47:32 12° 97° (E) 23:49:06 437.305
RS-15 19 Dec 23:47:35 23:53:12 15° 265° (W) 23:58:57 29.354- 29.394
QB50P2 19 Dec 23:50:19 23:54:27 51° 290° (WNW) 23:58:36 145.880/145.840
POLYITAN 1 19 Dec 23:58:56 00:02:59 42° 291° (WNW) 00:07:02 437.675
ANTELSAT 19 Dec 23:59:14 00:03:26 33° 294° (WNW) 00:07:39 437.575/2403.000
SWISSCUBE 20 Dec 00:01:06 00:05:36 42° 67° (ENE) 00:10:08 437.505
ITUPSAT 1 20 Dec 00:01:18 00:05:46 39° 66° (ENE) 00:10:14 437.325
NANOSAT C BR1 20 Dec 00:01:55 00:05:54 40° 292° (WNW) 00:09:53 145.865
CUBEBUG 1 20 Dec 00:05:39 00:07:22 12° 273° (W) 00:09:06 437.445
SO-50 20 Dec 00:07:56 00:11:20 20° 336° (NNW) 00:14:49 436.795
KKS-1 20 Dec 00:08:26 00:10:07 12° 55° (NE) 00:11:48 437.445
AUBIESAT-1 20 Dec 00:08:28 00:12:54 36° 60° (ENE) 00:17:22 437.475
QB50P1 20 Dec 00:16:24 00:20:07 30° 294° (WNW) 00:23:49 145.935-145.965
BEESAT 20 Dec 00:25:59 00:30:44 65° 71° (ENE) 00:35:30 436.000
M-CUBED/EXP-1 PRIME 20 Dec 00:33:03 00:37:51 62° 66° (ENE) 00:42:43 437.505
TIGRISAT 20 Dec 00:36:04 00:39:11 18° 301° (WNW) 00:42:18 435.000
POPSAT HIP 1 20 Dec 00:45:41 00:48:30 17° 300° (WNW) 00:51:18 437.405
Oscar 19 20 Dec 00:53:18 00:57:32 25° 92° (E) 01:01:45 437.125/150
PCSat 20 Dec 00:55:35 00:56:42 11° 259° (W) 00:57:50 145.827
UNISAT 6 20 Dec 01:06:38 01:07:35 11° 307° (NW) 01:08:31 437.425
ITAMSAT 1 20 Dec 01:08:45 01:11:08 13° 86° (E) 01:13:30 435.822/435.867
DUCHIFAT 1 20 Dec 01:16:24 01:16:35 10° 306° (NW) 01:16:46 145.980
BUGSAT 1 20 Dec 01:18:36 01:19:07 10° 305° (NW) 01:19:39 437.445
O/OREOS (USA 219) 20 Dec 01:21:44 01:26:12 89° 294° (WNW) 01:30:42 437.305
YUBILEINY 20 Dec 01:39:06 01:47:10 40° 293° (WNW) 01:55:15 435.215
SWISSCUBE 20 Dec 01:39:31 01:43:37 28° 266° (W) 01:47:44 437.505
ITUPSAT 1 20 Dec 01:39:32 01:43:45 30° 265° (W) 01:47:59 437.325
STARS 20 Dec 01:39:36 01:43:51 52° 70° (ENE) 01:48:09 437.465
KKS-1 20 Dec 01:41:35 01:46:01 78° 74° (ENE) 01:50:28 437.445
AUBIESAT-1 20 Dec 01:43:18 01:47:48 37° 258° (WSW) 01:52:21 437.475
SO-50 20 Dec 01:51:30 01:53:43 13° 1° (N) 01:55:57 436.795
BEESAT 20 Dec 02:05:46 02:09:02 18° 270° (W) 02:12:19 436.000
M-CUBED/EXP-1 PRIME 20 Dec 02:09:29 02:13:12 22° 264° (W) 02:16:58 437.505
Oscar 19 20 Dec 02:32:07 02:37:12 54° 291° (WNW) 02:42:14 437.125/150
AIST 1 20 Dec 02:34:11 02:37:32 22° 68° (ENE) 02:40:50
Gurwin Techsat 1B 20 Dec 02:37:23 02:42:32 48° 99° (E) 02:47:39 435.225
ITAMSAT 1 20 Dec 02:46:12 02:51:25 85° 106° (ESE) 02:56:36 435.822/435.867
MOZHAYETS 4 20 Dec 02:47:45 02:50:49 18° 59° (ENE) 02:53:53
HORYU 2 20 Dec 02:59:35 03:03:37 31° 96° (E) 03:07:37 437.375
O/OREOS (USA 219) 20 Dec 03:03:31 03:06:18 16° 317° (NW) 03:09:06 437.305
STARS 20 Dec 03:17:30 03:20:39 19° 269° (W) 03:23:50 437.465
KKS-1 20 Dec 03:21:07 03:23:14 13° 272° (W) 03:25:22 437.445
SO-50 20 Dec 03:32:26 03:36:04 21° 25° (NNE) 03:39:44 436.795
AO-7 20 Dec 03:44:03 03:51:40 37° 96° (E) 03:59:12 29.400- 29.500
GONETS M04 20 Dec 03:45:13 03:49:44 15° 70° (ENE) 03:54:15
YUBILEINY 20 Dec 03:45:48 03:47:13 10° 322° (NW) 03:48:38 435.215
PRISM 20 Dec 03:47:29 03:48:54 12° 55° (NE) 03:50:19 437.425
VERMONT LUNAR 20 Dec 03:58:56 04:00:42 13° 162° (SSE) 04:02:28 437.305
STRAND 1 20 Dec 04:07:03 04:08:36 11° 50° (NE) 04:10:10 437.568
PHONESAT 2.4 20 Dec 04:10:14 04:11:46 12° 159° (SSE) 04:13:18 2401.200-2431.200
CUBESAT XI-V 20 Dec 04:11:13 04:12:26 11° 53° (NE) 04:13:39 437.345
AIST 1 20 Dec 04:11:21 04:15:25 42° 267° (W) 04:19:26
JAS-2 20 Dec 04:12:17 04:16:22 20° 87° (E) 04:20:13 435.910
Oscar 19 20 Dec 04:14:26 04:15:26 11° 311° (NW) 04:16:26 437.125/150
Gurwin Techsat 1B 20 Dec 04:17:46 04:22:18 30° 298° (WNW) 04:26:50 435.225
MOZHAYETS 4 20 Dec 04:22:53 04:27:31 72° 258° (WSW) 04:32:12
ITAMSAT 1 20 Dec 04:26:54 04:30:16 18° 305° (NW) 04:33:38 435.822/435.867
HORYU 2 20 Dec 04:36:12 04:40:18 34° 294° (WNW) 04:44:23 437.375
SO-50 20 Dec 05:12:37 05:17:29 68° 47° (NE) 05:22:23 436.795
PRISM 20 Dec 05:19:29 05:23:43 80° 74° (ENE) 05:27:58 437.425
VERMONT LUNAR 20 Dec 05:35:38 05:38:16 20° 179° (S) 05:40:55 437.305
GONETS M04 20 Dec 05:36:03 05:44:45 66° 93° (E) 05:53:28
AO-7 20 Dec 05:36:40 05:44:54 63° 297° (WNW) 05:53:06 29.400- 29.500
Cubesat XI-IV 20 Dec 05:37:36 05:41:50 24° 92° (E) 05:46:02 437.490
STRAND 1 20 Dec 05:41:47 05:46:48 60° 70° (ENE) 05:51:50 437.568
CUBESAT XI-V 20 Dec 05:44:23 05:49:01 66° 73° (ENE) 05:53:39 437.345
PHONESAT 2.4 20 Dec 05:46:57 05:49:41 20° 176° (S) 05:52:25 2401.200-2431.200
JAS-2 20 Dec 05:56:24 06:02:14 68° 289° (WNW) 06:07:30 435.910
CUTE-I 20 Dec 06:10:32 06:15:35 42° 98° (E) 06:20:37 437.470
SO-50 20 Dec 06:53:52 06:57:39 23° 246° (WSW) 07:01:25 436.795
PRISM 20 Dec 06:58:08 06:59:49 12° 272° (W) 07:01:31 437.425
VERMONT LUNAR 20 Dec 07:13:49 07:15:53 15° 196° (SSW) 07:17:56 437.305
Cubesat XI-IV 20 Dec 07:17:04 07:22:18 58° 291° (WNW) 07:27:30 437.490
STRAND 1 20 Dec 07:22:30 07:26:23 22° 269° (W) 07:30:17 437.568
CUBESAT XI-V 20 Dec 07:23:54 07:26:55 17° 271° (W) 07:29:57 437.345
PHONESAT 2.4 20 Dec 07:25:17 07:27:40 17° 193° (SSW) 07:30:03 2401.200-2431.200
AO-7 20 Dec 07:30:33 07:36:10 20° 320° (NW) 07:41:47 29.400- 29.500
GONETS M04 20 Dec 07:34:19 07:42:13 35° 296° (WNW) 07:50:10
HO-68 20 Dec 07:42:02 07:46:35 18° 86° (E) 07:51:06 435.675
JAS-2 20 Dec 07:43:17 07:46:08 14° 313° (NW) 07:48:52 435.910
CANX-2 20 Dec 07:47:20 07:48:35 11° 86° (E) 07:49:50 2200.000
CUTE-I 20 Dec 07:50:51 07:55:33 33° 297° (WNW) 08:00:15 437.470
BRITE-PL 20 Dec 07:59:22 08:02:29 18° 91° (E) 08:05:45 437.365/2234.400
COMPASS 1 20 Dec 08:09:43 08:11:38 13° 87° (E) 08:13:32 437.405
O/OREOS (USA 219) 20 Dec 08:11:17 08:12:12 11° 36° (NE) 08:13:08 437.305
SEEDS 20 Dec 08:14:01 08:16:49 17° 90° (E) 08:19:35 437.485
CUTE 1.7 + AOD 2 20 Dec 08:16:36 08:19:50 20° 91° (E) 08:23:03 437.475
TIGRISAT 20 Dec 08:27:00 08:29:33 15° 57° (ENE) 08:32:08 435.000
GOMX 1 20 Dec 08:27:34 08:31:22 24° 93° (E) 08:35:20 467.674
CUSAT 1 20 Dec 08:29:41 08:31:32 13° 76° (ENE) 08:33:36 437.405
POPSAT HIP 1 20 Dec 08:33:30 08:34:52 11° 55° (NE) 08:36:13 437.405
MaSat-1 20 Dec 08:36:22 08:37:50 15° 112° (ESE) 08:39:17 437.345
Oscar 11 20 Dec 08:51:57 08:54:43 16° 89° (E) 08:57:29 145.826/435.025
DOVE 4 20 Dec 08:54:28 08:58:40 31° 95° (E) 09:03:05 437.250
UNISAT 6 20 Dec 08:54:34 08:58:14 26° 63° (ENE) 09:01:59 437.425
Cubesat XI-IV 20 Dec 08:59:36 09:01:20 12° 311° (NW) 09:03:04 437.490
DUCHIFAT 1 20 Dec 08:59:48 09:02:48 19° 61° (ENE) 09:05:48 145.980
UKube-1 20 Dec 09:00:38 09:02:58 14° 89° (E) 09:05:17 .
BUGSAT 1 20 Dec 09:01:05 09:03:36 16° 60° (ENE) 09:06:07 437.445
AAUSAT CUBESAT 2 20 Dec 09:08:37 09:12:41 42° 98° (E) 09:16:42 437.432
CUBEBUG 2 20 Dec 09:08:56 09:12:03 18° 90° (E) 09:15:13 437.445
QB50P2 20 Dec 09:12:29 09:15:58 25° 64° (ENE) 09:19:27 145.880/145.840
DANDE 20 Dec 09:17:38 09:20:53 28° 87° (E) 09:25:04 436.750
CANX-2 20 Dec 09:20:49 09:25:10 89° 288° (WNW) 09:29:30 2200.000
POLYITAN 1 20 Dec 09:20:56 09:24:37 30° 66° (ENE) 09:28:19 437.675
ZACube-1 20 Dec 09:21:13 09:24:09 17° 90° (E) 09:27:06 437.345
CINEMA 3 20 Dec 09:22:27 09:26:47 35° 96° (E) 09:31:15 145.822/145.860
NANOSAT C BR1 20 Dec 09:23:26 09:27:08 31° 66° (ENE) 09:30:52 145.865
ANTELSAT 20 Dec 09:25:43 09:29:57 49° 70° (ENE) 09:34:20 437.575/2403.000
HO-68 20 Dec 09:28:12 09:35:25 81° 107° (ESE) 09:42:34 435.675
BRITE-PL 20 Dec 09:36:50 09:41:23 66° 287° (WNW) 09:46:18 437.365/2234.400
QB50P1 20 Dec 09:37:28 09:41:26 42° 69° (ENE) 09:45:26 145.935-145.965
COMPASS 1 20 Dec 09:43:37 09:47:55 77° 285° (WNW) 09:52:09 437.405
YUBILEINY 20 Dec 09:46:18 09:54:09 36° 65° (ENE) 10:01:58 435.215
UWE-3 20 Dec 09:47:07 09:51:16 34° 96° (E) 09:55:29 435.000/436.395/437.385
FUNcube-1 20 Dec 09:47:21 09:51:17 29° 95° (E) 09:55:15 145.935
O/OREOS (USA 219) 20 Dec 09:48:22 09:52:45 49° 58° (ENE) 09:57:09 437.305
SEEDS 20 Dec 09:48:47 09:53:02 59° 288° (WNW) 09:57:14 437.485
CUTE 1.7 + AOD 2 20 Dec 09:51:51 09:56:02 48° 290° (WNW) 10:00:11 437.475
RS-15 20 Dec 09:55:54 10:01:03 15° 94° (E) 10:06:11 29.354- 29.394
TIGRISAT 20 Dec 10:01:19 10:05:41 79° 256° (WSW) 10:10:13 435.000
DELFI C3 20 Dec 10:02:06 10:06:14 66° 102° (ESE) 10:10:19 145.870
DX 1 20 Dec 10:03:51 10:08:09 59° 102° (ESE) 10:12:26 434.975-435.025
50 SAT 20 Dec 10:04:23 10:07:28 20° 92° (E) 10:10:34 437.505
AISAT 20 Dec 10:04:26 10:08:01 24° 93° (E) 10:11:35 437.250
GOMX 1 20 Dec 10:05:13 10:09:42 49° 289° (WNW) 10:14:29 467.674
POPSAT HIP 1 20 Dec 10:05:51 10:10:03 81° 74° (ENE) 10:14:18 437.405
MaSat-1 20 Dec 10:09:26 10:11:04 17° 309° (NW) 10:12:40 437.345
CUSAT 1 20 Dec 10:09:33 10:13:25 71° 285° (WNW) 10:18:42 437.405
CUBEBUG 1 20 Dec 10:13:10 10:14:38 11° 87° (E) 10:16:05 437.445
HUMSAT D 20 Dec 10:23:31 10:27:34 38° 97° (E) 10:31:38 437.325/437.525
Oscar 11 20 Dec 10:26:59 10:31:19 62° 288° (WNW) 10:35:37 145.826/435.025
UNISAT 6 20 Dec 10:30:42 10:34:51 41° 263° (W) 10:39:07 437.425
DOVE 4 20 Dec 10:32:11 10:36:29 38° 292° (WNW) 10:41:01 437.250
DUCHIFAT 1 20 Dec 10:34:13 10:38:19 53° 260° (W) 10:42:27 145.980
BUGSAT 1 20 Dec 10:34:38 10:38:41 62° 258° (WSW) 10:42:43 437.445
UKube-1 20 Dec 10:35:17 10:39:38 71° 287° (WNW) 10:43:56 .
Oscar 19 20 Dec 10:40:11 10:40:50 10° 49° (NE) 10:41:28 437.125/150
CUBEBUG 2 20 Dec 10:44:35 10:49:09 64° 287° (WNW) 10:53:48 437.445
AAUSAT CUBESAT 2 20 Dec 10:44:45 10:48:08 23° 296° (WNW) 10:51:30 437.432
QB50P2 20 Dec 10:47:48 10:51:44 38° 262° (W) 10:55:42 145.880/145.840
ZACube-1 20 Dec 10:56:28 11:00:56 65° 287° (WNW) 11:05:28 437.345
POLYITAN 1 20 Dec 10:56:46 11:00:32 31° 264° (W) 11:04:20 437.675
VELOX 1 20 Dec 10:57:21 11:01:48 74° 103° (ESE) 11:06:13 145.980
CANX-2 20 Dec 10:58:31 11:00:27 13° 303° (WNW) 11:02:23 2200.000
ESTCUBE 1 20 Dec 10:59:01 11:03:08 34° 96° (E) 11:07:14 437.505/2401.250
NANOSAT C BR1 20 Dec 10:59:18 11:03:01 30° 264° (W) 11:06:45 145.865
CINEMA 3 20 Dec 10:59:47 11:03:57 33° 294° (WNW) 11:08:16 145.822/145.860
DANDE 20 Dec 11:00:53 11:04:19 29° 297° (WNW) 11:08:46 436.750
ANTELSAT 20 Dec 11:03:43 11:07:03 21° 269° (W) 11:10:29 437.575/2403.000
QB50P1 20 Dec 11:14:14 11:17:31 22° 267° (W) 11:20:50 145.935-145.965
HO-68 20 Dec 11:16:42 11:22:27 27° 308° (NW) 11:28:10 435.675
BRITE-PL 20 Dec 11:18:11 11:19:10 11° 305° (NW) 11:20:10 437.365/2234.400
TISAT 1 20 Dec 11:19:01 11:21:22 14° 89° (E) 11:23:43 437.305
SPROUT 20 Dec 11:21:24 11:23:52 15° 89° (E) 11:26:19 437.525
COMPASS 1 20 Dec 11:21:42 11:22:53 11° 305° (NW) 11:24:04 437.405
FUNcube-1 20 Dec 11:23:33 11:27:42 37° 292° (WNW) 11:31:54 145.935
UWE-3 20 Dec 11:23:43 11:27:47 33° 294° (WNW) 11:31:55 435.000/436.395/437.385
O/OREOS (USA 219) 20 Dec 11:28:21 11:31:52 23° 257° (WSW) 11:35:23 437.305
DELFI C3 20 Dec 11:38:32 11:41:02 16° 300° (WNW) 11:43:30 145.870
